User: anonymous   Login
Location: Azul
(36.7830°S, 59.8500°W)
Time: 01:13:56
(UTC-03:00)
Language:

XW-2C - Orbit

View from above orbital plane
View from above orbital plane
View from above satellite
View from above satellite

Ground track
Ground track

The orbit data is extracted from the following two-line orbital elements,

1 40906U 15049H   21295.75824741  .00001710  00000-0  89514-4 0  9995
2 40906  97.4905 296.5765 0016060 103.3536  68.6666 15.17082248336861
Epoch (UTC): 22 October 2021 18:11:52
Eccentricity: 0.0016060
inclination: 97.4905°
perigee height: 503 km
apogee height: 526 km
right ascension of ascending node: 296.5765°
argument of perigee: 103.3536°
revolutions per day: 15.17082248
mean anomaly at epoch: 68.6666°
orbit number at epoch: 33686

The dashed part of the orbit path shows where the satellite is in the earth's shadow,  

DLR